SCP
0 0 0 1 2 3 3 2 2 1 1 1 0 0 0 0 0 0 1 1 1 1 1 1 1 1 1 1 1 0 0 0 0 0 0 0 0 0 0 0 0 0 0
0 0 0 1 2 2 2 2 2 1 1 1 1 0 0 0 0 0 1 1 1 0 0 1 1 1 1 1 1 1 0 0 0 0 0 0 0 0 0 0 0 0 0
0 0 0 1 1 2 2 2 2 2 1 1 1 1 1 0 0 1 1 1 0 0 0 0 0 1 1 1 1 1 1 0 0 0 0 0 0 0 0 0 0 0 0
0 0 1 1 1 1 2 2 2 2 1 1 1 1 1 1 0 0 0 0 0 0 0 0 0 0 0 0 1 1 0 0 0 0 0 0 0 0 0 0 0 0 0
1 1 1 1 1 1 1 1 2 2 1 1 1 1 1 0 0 0 0 0 0 0 0 0 0 0 0 0 0 0 0 0 0 0 0 0 0 0 0 0 0 0 0
0 0 0 0 0 0 0 1 1 1 1 1 1 0 0 0 0 0 0 0 0 0 0 0 0 0 0 0 0 0 0 0 0 0 0 0 0 0 0 0 0 0 0
0 0 0 0 0 0 0 0 0 0 0 0 0 0 0 0 0 0 0 0 0 0 0 0 0 0 0 0 0 0 0 0 0 0 0 0 0 0 0 0 0 0 0
0 0 0 0 0 0 0 0 0 0 0 0 0 0 0 0 0 0 0 0 0 0 0 0 0 0 0 0 0 0 0 0 0 0 0 0 0 0 0 0 0 0 0
0 0 0 0 0 0 0 0 0 0 0 0 0 0 0 0 0 0 0 0 0 0 0 0 0 0 0 0 0 0 0 0 0 0 0 0 0 0 0 0 0 0 0
0 0 0 0 0 0 0 0 0 0 0 0 0 0 0 0 0 0 0 0 0 0 0 0 0 0 0 0 0 0 0 0 0 0 0 0 0 0 0 0 0 0 0
0 0 0 0 0 0 0 0 0 0 0 0 0 0 0 0 0 0 0 0 0 0 0 0 0 0 0 0 0 0 0 0 0 0 0 0 0 0 0 0 0 0 0
0 0 0 0 0 0 0 0 0 0 0 0 0 0 0 0 0 0 0 0 0 0 0 0 0 0 0 0 0 0 0 0 0 0 0 0 0 0 0 0 0 0 0
0 0 0 0 0 0 0 0 0 0 0 0 0 0 0 0 0 0 0 0 0 0 0 0 0 0 0 0 0 0 0 0 0 0 0 0 0 0 0 0 0 0 0
0 0 0 0 0 0 0 0 0 0 0 0 0 0 0 0 0 0 0 0 0 0 0 0 0 0 0 0 0 0 0 0 0 0 0 0 0 0 0 0 0 0 0
0 0 0 0 0 0 0 0 0 0 0 0 0 0 0 0 0 0 0 0 0 0 0 0 0 0 0 0 0 0 0 0 0 0 -0 -0 -0 -0 -0 -0 -0 0 0
0 0 0 0 0 0 0 0 0 0 0 0 0 0 0 0 0 0 0 0 0 0 0 0 0 0 0 0 0 0 0 0 0 -0 -0 -0 -0 -0 -0 -0 0 0 0
0 0 0 0 0 0 0 0 0 0 0 0 0 0 0 0 0 0 0 0 0 0 0 0 0 0 0 0 0 0 0 0 0 -0 -0 -0 -0 -0 0 0 0 0 0
0 0 0 0 0 0 0 0 0 0 0 0 0 0 0 0 0 0 0 0 0 0 0 0 0 0 0 0 0 0 0 0 0 -0 -0 -0 -0 -0 0 0 0 0 0
0 0 0 0 0 0 0 0 0 0 0 0 0 0 0 0 0 0 0 0 0 0 0 0 0 0 0 0 0 0 0 0 0 0 -0 -0 -0 -0 0 0 0 0 0
0 0 0 0 0 0 0 0 0 0 0 0 0 0 0 0 0 0 0 0 0 0 0 0 0 0 0 0 0 0 0 0 0 0 0 0 0 0 0 0 0 0 0
0 0 0 0 0 0 0 0 0 0 0 0 0 0 0 0 0 0 0 0 0 0 0 0 0 0 0 0 0 0 0 0 0 0 0 0 0 0 0 0 0 0 0
0 0 0 0 0 0 0 0 0 0 0 0 0 0 0 0 0 0 0 0 0 0 0 0 0 0 0 0 0 0 0 0 0 0 0 0 0 0 0 0 0 0 0
0 0 0 0 0 0 0 0 0 0 0 0 0 0 0 0 0 0 0 0 0 0 0 0 0 0 0 0 0 0 0 0 0 0 0 0 0 0 0 0 0 0 0
0 0 0 0 0 0 0 0 0 0 0 0 0 0 0 0 0 0 0 0 0 0 0 0 0 0 0 0 0 0 0 0 0 0 0 0 0 0 0 0 0 0 0
0 0 0 0 0 0 0 0 0 0 0 0 0 0 0 0 0 0 0 0 0 0 0 0 0 0 0 0 0 0 0 0 0 0 0 0 0 0 0 0 0 0 0
0 0 0 0 0 0 0 0 0 0 0 0 0 0 0 0 0 0 0 0 0 0 0 0 0 0 0 0 0 -0 0 0 0 0 0 0 0 0 0 0 0 0 0
Wind_Speed
6 5 3 2 3 6 9 10 10 8 5 2 4 4 3 3 3 3 3 2 1 2 3 5 3 5 6 6 8 8 10 10 8 11 13 13 15 15 12 12 12 12 13
7 6 3 1 3 5 7 9 9 8 5 1 1 1 2 2 2 2 2 2 4 5 4 5 6 6 6 8 7 8 10 11 10 11 14 16 16 13 13 11 11 13 13
10 9 7 6 7 7 7 7 9 8 6 3 2 4 3 3 2 1 2 4 5 5 6 7 8 8 10 9 10 12 13 13 13 13 13 15 17 15 14 16 15 15 14
11 11 12 11 11 10 10 12 12 11 9 6 6 5 4 4 5 4 4 5 5 6 7 8 9 10 11 12 13 14 13 15 15 14 12 14 15 16 17 15 15 17 15
14 14 15 14 13 13 13 13 14 14 13 11 9 7 7 6 5 6 6 8 7 8 9 10 10 11 12 14 14 15 16 14 16 15 15 15 14 17 17 19 17 15 15
14 15 15 14 14 14 13 13 14 14 13 12 12 11 10 9 8 9 9 9 9 10 12 13 12 13 13 14 14 15 17 16 17 15 15 15 16 16 16 18 18 16 14
12 12 13 13 13 13 13 12 13 12 12 11 10 9 8 7 7 9 10 11 11 11 12 13 13 14 14 15 15 16 16 17 17 16 15 15 15 15 15 16 17 18 15
11 12 12 11 12 12 11 11 11 10 9 8 7 7 8 8 8 9 11 11 11 12 14 14 15 16 17 16 15 15 16 15 15 17 17 14 13 13 12 13 14 16 15
10 10 10 10 11 11 11 10 9 8 8 8 8 8 9 9 10 11 11 11 11 13 15 15 16 16 16 16 15 12 14 14 14 15 15 13 11 11 11 11 10 12 14
9 9 9 10 9 9 9 9 9 9 9 10 9 9 10 11 11 12 13 13 13 13 14 15 15 15 14 14 13 12 12 13 13 12 14 13 10 10 9 9 9 10 12
8 8 8 8 8 8 8 8 9 10 10 11 11 11 11 12 13 13 13 12 12 12 12 12 12 12 12 12 11 12 12 13 13 12 13 13 12 10 9 9 9 10 10
7 7 8 8 8 8 9 9 10 11 12 12 12 12 12 13 13 13 12 12 11 11 11 11 11 10 10 11 11 12 11 12 13 13 13 14 11 13 11 9 11 10 11
6 6 7 8 8 9 9 10 11 12 13 14 14 14 13 13 12 12 12 11 11 11 12 12 11 11 11 11 10 11 12 12 13 13 13 14 13 13 11 11 11 10 10
5 7 7 7 8 8 10 11 12 12 13 14 14 14 13 12 11 11 10 10 10 12 12 13 12 12 11 11 12 13 14 14 14 13 12 12 13 13 13 11 11 10 10
6 7 8 7 8 9 10 11 11 11 12 12 12 12 11 10 9 9 9 9 10 12 12 12 12 11 9 12 15 15 15 15 14 13 12 12 16 19 15 12 10 9 8
6 7 7 7 9 10 10 10 9 10 10 10 10 10 10 10 9 9 9 9 10 11 12 12 12 12 10 16 20 18 16 15 14 13 13 14 15 18 22 21 19 15 11
7 7 7 8 8 8 8 8 8 8 9 9 9 10 10 10 9 9 9 9 10 11 11 12 12 12 12 17 21 23 18 14 12 12 12 12 14 18 16 17 18 15 16
6 5 6 7 7 6 6 7 8 8 8 9 9 10 9 9 9 9 9 10 10 10 10 10 11 11 11 15 21 27 16 12 12 11 12 13 15 15 18 14 9 7 9
4 4 6 6 5 4 6 7 8 8 9 9 9 9 9 9 10 10 10 9 10 11 11 11 11 12 13 15 20 26 13 12 13 12 13 14 15 19 22 13 6 2 5
4 4 5 4 2 4 6 7 8 9 9 9 7 7 7 9 10 10 10 10 10 11 11 12 12 14 15 14 16 23 12 12 12 11 12 15 18 20 20 12 8 3 7
4 4 3 2 2 4 6 7 7 8 7 6 5 6 7 8 9 10 9 9 10 9 9 10 11 12 14 16 16 19 13 13 12 10 10 11 20 17 17 14 11 10 9
3 3 2 1 1 3 6 7 7 6 6 5 5 6 7 8 9 11 9 8 9 9 9 9 10 10 12 14 17 17 15 17 12 10 10 11 18 13 14 13 15 15 11
3 2 2 1 1 3 6 9 9 8 7 6 6 7 8 8 9 10 9 8 8 9 10 10 9 10 11 13 17 17 16 18 13 10 15 16 16 11 9 15 16 12 7
3 2 3 3 3 5 8 8 9 8 8 8 7 7 7 8 8 7 8 8 9 11 11 12 11 11 11 13 14 13 14 15 14 11 12 12 13 11 9 10 10 9 9
4 3 3 4 6 7 7 6 6 7 8 7 7 7 7 8 7 6 4 6 7 7 9 12 12 11 11 14 17 14 12 13 13 12 9 10 10 10 8 7 8 8 8
4 3 4 5 7 7 6 6 7 7 8 7 8 7 7 7 8 9 6 3 4 7 6 9 11 10 11 13 16 18 14 16 19 11 9 9 9 9 9 7 7 8 8
Wind_Direction
20 2 309 233 175 151 140 132 125 124 131 217 212 171 158 159 158 144 137 164 278 308 305 307 315 305 309 316 307 306 297 290 300 294 290 287 283 278 273 269 275 282 284
29 33 27 86 136 126 123 124 119 118 123 208 293 76 112 155 121 119 95 7 359 345 332 348 324 333 318 297 302 304 301 301 297 296 296 292 286 278 279 283 274 274 279
39 51 59 72 88 95 101 100 97 98 93 118 132 124 141 172 164 59 28 10 355 352 350 344 337 331 313 310 314 299 293 299 299 288 288 291 290 297 289 288 282 277 272
54 61 69 72 76 79 79 80 82 81 75 71 62 55 33 31 27 358 7 342 341 342 340 338 331 320 311 306 295 301 303 292 288 287 278 274 282 288 290 281 275 275 273
64 68 70 75 78 80 80 77 74 68 62 57 54 43 37 26 17 355 359 332 331 328 327 326 321 314 304 303 303 297 290 289 286 287 287 283 277 272 274 281 280 273 270
72 73 74 72 71 70 70 69 66 63 59 55 52 45 39 22 5 348 339 329 322 320 319 321 316 308 303 303 299 296 290 286 286 285 282 280 277 276 275 276 276 276 275
79 72 68 67 65 63 63 65 66 64 58 53 46 36 18 353 347 340 333 323 318 317 322 321 313 305 303 300 296 291 288 286 283 279 278 277 278 279 280 279 281 284 286
76 69 65 64 65 64 61 60 61 57 48 41 28 17 359 346 344 341 325 316 313 317 318 308 304 302 298 294 293 291 289 286 285 282 281 280 279 279 275 274 279 282 281
74 68 65 61 59 58 53 47 43 37 25 14 1 354 349 340 330 318 306 312 316 310 312 310 303 300 298 296 295 289 292 292 288 286 285 282 280 277 275 272 266 268 274
76 63 56 51 47 45 43 33 24 12 1 351 345 337 332 324 317 311 314 312 313 314 310 307 309 310 309 307 304 300 298 297 292 288 285 284 281 279 277 272 266 258 262
67 51 42 39 36 27 19 11 4 355 347 340 335 328 323 319 315 311 315 319 316 315 314 318 318 316 313 312 308 304 303 301 300 298 292 287 283 278 273 268 263 259 256
46 43 32 23 18 15 8 2 353 346 339 333 326 322 319 318 318 320 323 322 320 318 315 313 319 322 318 315 312 307 308 306 304 301 297 291 287 280 275 267 260 255 251
36 29 27 18 14 6 1 353 345 342 334 330 326 325 324 326 328 329 329 325 317 311 313 319 320 316 312 310 307 305 304 301 298 296 295 294 290 285 280 273 263 254 250
41 25 20 24 12 0 354 347 345 344 340 337 333 332 333 334 331 326 317 310 310 314 322 322 319 315 316 327 330 318 303 296 294 293 294 296 292 288 287 284 271 254 243
30 31 27 18 360 357 354 353 352 353 349 343 339 336 331 323 316 310 310 317 324 331 336 335 335 334 340 2 342 326 311 305 304 308 312 307 299 296 298 295 284 265 238
22 28 22 6 1 359 355 354 355 354 351 346 339 330 324 319 317 319 328 338 347 350 346 346 343 343 6 358 342 333 316 306 309 321 324 316 309 312 309 299 287 268 240
23 24 9 3 359 357 351 348 347 347 347 346 340 333 331 329 333 338 351 356 353 349 346 349 349 347 10 1 344 338 316 305 318 333 330 322 319 319 315 302 286 263 235
28 16 360 360 358 356 352 343 341 344 347 348 345 345 349 354 0 5 4 355 350 350 350 356 356 351 10 5 349 340 320 330 338 344 335 329 327 330 328 310 286 243 210
37 15 5 353 353 355 350 342 345 350 352 355 355 1 6 8 8 8 3 0 354 357 357 4 359 356 0 4 352 346 337 345 343 345 344 340 338 339 341 338 332 191 160
38 18 356 347 356 2 351 344 352 5 11 12 11 10 6 3 1 0 354 355 355 359 358 2 1 356 353 358 354 347 348 345 340 344 345 344 345 346 353 359 3 56 119
41 11 349 351 1 354 341 335 354 12 9 9 7 4 355 352 351 347 346 348 351 355 359 4 0 355 351 353 356 348 352 346 339 346 345 340 344 353 1 11 25 41 92
44 15 360 10 338 328 322 324 343 347 341 336 337 343 343 342 343 340 340 348 351 352 359 2 1 357 353 353 350 342 347 346 344 349 343 338 343 2 17 27 31 42 75
53 39 32 56 342 308 311 314 322 324 318 317 329 334 335 336 342 342 347 357 5 359 360 -0 4 2 358 354 351 348 353 354 349 348 344 342 352 8 30 33 36 44 65
81 71 68 50 355 325 316 311 314 316 309 316 325 325 326 338 351 355 1 5 13 5 360 1 4 5 3 2 356 353 357 353 351 346 338 346 8 18 31 43 50 52 56
98 79 39 357 335 328 326 334 343 340 336 333 330 329 339 354 343 3 18 12 47 34 11 9 1 7 5 2 355 357 1 354 347 339 357 11 13 13 23 51 62 64 67
105 64 13 346 343 344 356 7 4 1 358 1 0 355 359 2 355 356 12 120 99 130 96 54 21 18 9 348 353 355 353 349 343 353 11 11 11 10 11 35 66 71 73